Waseca, MN

12:31 AM CST on January 20, 2017 (GMT -0600)
Waseca Municipal

Weather History for KACQ - December, 2012

Change the Weather History Date:

Sunday, December 23, 2012

  Actual Average Record
Temperature  
Mean Temperature 16 °F -  
Max Temperature 19 °F 23 °F 48 °F (1936)
Min Temperature 14 °F 6 °F -33 °F (1983)
Degree Days  
Heating Degree Days 48    
Moisture  
Dew Point 11 °F    
Average Humidity 76    
Maximum Humidity 86    
Minimum Humidity 68    
Precipitation  
Precipitation 0.00 in - - ()
Sea Level Pressure  
Sea Level Pressure 30.05 in    
Wind  
Wind Speed 8 mph (NNE)    
Max Wind Speed 14 mph    
Max Gust Speed 20 mph    
Visibility 9 miles    
Events      
Averages and records for this station are not official NWS values.
T = Trace of Precipitation, MM = Missing Value Source: NWS Daily Summary

Daily Weather History Graph

Daily Weather History Graph

Search for Another Location

Airport or City:

Trip Planner

Search our weather history database for the weather conditions in past years. The results will help you decide how hot, cold, wet, or windy it might be!

Date:

Astronomy

Dec. 23, 2012 Rise Set
Actual Time 7:47 AM CST 4:40 PM CST
Civil Twilight 7:13 AM CST 5:13 PM CST
Nautical Twilight 6:37 AM CST 5:49 PM CST
Astronomical Twilight 6:02 AM CST 6:25 PM CST
Moon 1:35 PM CST (12/23) 3:25 AM CST (12/23)
Length of Visible Light 9h 59m
Length of Day
8h 52m
Waxing Gibbous, 82% of the Moon is Illuminated
Dec 23
Waxing Gibbous
Dec 28
Full
Jan 4
Last Quarter
Jan 11
New
Jan 18
First Quarter

Hourly Weather History & Observations

Time (CST) Temp. Windchill Dew Point Humidity Pressure Visibility Wind Dir Wind Speed Gust Speed Precip Events Conditions
12:13 AM 14.0 °F 5.1 °F 10.4 °F 86% 30.03 in 7.0 mi WNW 5.8 mph - N/A   Clear
12:34 AM 14.0 °F 3.9 °F 10.4 °F 86% 30.03 in 7.0 mi NW 6.9 mph - N/A   Clear
12:54 AM 14.0 °F 3.9 °F 10.4 °F 86% 30.04 in 7.0 mi NW 6.9 mph - N/A   Clear
1:13 AM 14.0 °F 5.1 °F 10.4 °F 86% 30.03 in 7.0 mi NNW 5.8 mph - N/A   Clear
1:33 AM 14.0 °F 2.9 °F 10.4 °F 86% 30.03 in 7.0 mi NNW 8.1 mph - N/A   Clear
1:54 AM 14.0 °F 3.9 °F 10.4 °F 86% 30.03 in 7.0 mi NW 6.9 mph - N/A   Clear
2:14 AM 14.0 °F 3.9 °F 10.4 °F 86% 30.04 in 7.0 mi NNW 6.9 mph - N/A   Clear
2:33 AM 17.6 °F 6.4 °F 12.2 °F 79% 30.04 in 7.0 mi North 9.2 mph - N/A   Mostly Cloudy
2:54 AM 17.6 °F 6.4 °F 12.2 °F 79% 30.05 in 5.0 mi North 9.2 mph - N/A   Haze
3:13 AM 17.6 °F 7.3 °F 12.2 °F 79% 30.05 in 5.0 mi North 8.1 mph - N/A   Haze
3:34 AM 19.4 °F 9.5 °F 15.8 °F 86% 30.05 in 5.0 mi North 8.1 mph - N/A   Overcast
3:54 AM 19.4 °F 8.6 °F 15.8 °F 86% 30.06 in 5.0 mi North 9.2 mph - N/A   Overcast
4:14 AM 19.4 °F 6.0 °F 15.8 °F 86% 30.06 in 5.0 mi North 13.8 mph 19.6 mph N/A   Overcast
4:34 AM 19.4 °F 7.2 °F 15.8 °F 86% 30.06 in 5.0 mi North 11.5 mph - N/A   Overcast
4:53 AM 19.4 °F 6.0 °F 15.8 °F 86% 30.07 in 5.0 mi North 13.8 mph - N/A   Overcast
5:14 AM 19.4 °F 6.6 °F 15.8 °F 86% 30.07 in 5.0 mi North 12.7 mph - N/A   Overcast
5:34 AM 19.4 °F 7.9 °F 15.8 °F 86% 30.06 in 5.0 mi North 10.4 mph - N/A   Overcast
6:14 AM 19.4 °F 7.2 °F 15.8 °F 86% 30.06 in 7.0 mi NNE 11.5 mph - N/A   Overcast
6:34 AM 19.4 °F 6.6 °F 15.8 °F 86% 30.06 in 7.0 mi NNE 12.7 mph - N/A   Overcast
6:54 AM 17.6 °F 4.3 °F 12.2 °F 79% 30.06 in 10.0 mi NNE 12.7 mph - N/A   Overcast
7:14 AM 17.6 °F 5.0 °F 12.2 °F 79% 30.07 in 10.0 mi NNE 11.5 mph - N/A   Mostly Cloudy
7:33 AM 15.8 °F 3.4 °F 10.4 °F 79% 30.09 in 10.0 mi North 10.4 mph - N/A   Mostly Cloudy
7:54 AM 14.0 °F 2.0 °F 10.4 °F 86% 30.09 in 10.0 mi NNE 9.2 mph - N/A   Clear
8:14 AM 14.0 °F -0.8 °F 10.4 °F 86% 30.08 in 10.0 mi NNE 13.8 mph - N/A   Clear
8:34 AM 14.0 °F -0.2 °F 8.6 °F 79% 30.08 in 10.0 mi NNE 12.7 mph - N/A   Clear
8:54 AM 14.0 °F 1.2 °F 8.6 °F 79% 30.09 in 10.0 mi NE 10.4 mph 16.1 mph N/A   Clear
9:13 AM 14.0 °F 0.5 °F 8.6 °F 79% 30.10 in 10.0 mi NNE 11.5 mph - N/A   Clear
9:34 AM 14.0 °F -0.2 °F 8.6 °F 79% 30.10 in 10.0 mi NNE 12.7 mph - N/A   Clear
9:54 AM 15.8 °F 2.7 °F 8.6 °F 73% 30.10 in 10.0 mi NE 11.5 mph - N/A   Clear
10:13 AM 17.6 °F 4.3 °F 8.6 °F 68% 30.11 in 10.0 mi NNE 12.7 mph - N/A   Clear
10:34 AM 17.6 °F 6.4 °F 10.4 °F 73% 30.11 in 10.0 mi NNE 9.2 mph - N/A   Clear
11:13 AM 17.6 °F 6.4 °F 10.4 °F 73% 30.08 in 10.0 mi NNE 9.2 mph - N/A   Clear
11:34 AM 19.4 °F 8.6 °F 10.4 °F 68% 30.08 in 10.0 mi NNE 9.2 mph - N/A   Clear
11:54 AM 19.4 °F 7.9 °F 10.4 °F 68% 30.07 in 10.0 mi ENE 10.4 mph - N/A   Clear
12:13 PM 19.4 °F 10.4 °F 10.4 °F 68% 30.07 in 10.0 mi NE 6.9 mph - N/A   Clear
12:34 PM 19.4 °F 7.9 °F 10.4 °F 68% 30.05 in 10.0 mi NNE 10.4 mph - N/A   Clear
12:54 PM 19.4 °F 9.5 °F 10.4 °F 68% 30.05 in 10.0 mi NE 8.1 mph - N/A   Clear
1:14 PM 19.4 °F 8.6 °F 10.4 °F 68% 30.04 in 10.0 mi NNE 9.2 mph - N/A   Clear
1:34 PM 19.4 °F 9.5 °F 10.4 °F 68% 30.05 in 10.0 mi NNE 8.1 mph - N/A   Clear
1:54 PM 19.4 °F 8.6 °F 10.4 °F 68% 30.05 in 10.0 mi NNE 9.2 mph - N/A   Clear
2:14 PM 19.4 °F 8.6 °F 12.2 °F 74% 30.04 in 10.0 mi NNE 9.2 mph - N/A   Clear
2:34 PM 19.4 °F 9.5 °F 10.4 °F 68% 30.04 in 10.0 mi NE 8.1 mph - N/A   Clear
2:54 PM 19.4 °F 9.5 °F 10.4 °F 68% 30.05 in 10.0 mi NE 8.1 mph - N/A   Clear
3:14 PM 19.4 °F 12.8 °F 10.4 °F 68% 30.05 in 10.0 mi NE 4.6 mph - N/A   Clear
3:34 PM 19.4 °F 14.3 °F 10.4 °F 68% 30.06 in 10.0 mi NE 3.5 mph - N/A   Clear
3:54 PM 19.4 °F 12.8 °F 12.2 °F 74% 30.06 in 10.0 mi NE 4.6 mph - N/A   Clear
4:14 PM 19.4 °F 12.8 °F 12.2 °F 74% 30.07 in 10.0 mi North 4.6 mph - N/A   Clear
4:34 PM 19.4 °F 12.8 °F 12.2 °F 74% 30.06 in 10.0 mi NNE 4.6 mph - N/A   Clear
4:54 PM 17.6 °F 12.3 °F 10.4 °F 73% 30.08 in 10.0 mi North 3.5 mph - N/A   Clear
5:14 PM 17.6 °F 10.7 °F 10.4 °F 73% 30.08 in 10.0 mi North 4.6 mph - N/A   Clear
5:34 PM 17.6 °F 9.3 °F 10.4 °F 73% 30.07 in 10.0 mi NNE 5.8 mph - N/A   Clear
5:54 PM 17.6 °F 12.3 °F 10.4 °F 73% 30.07 in 10.0 mi North 3.5 mph - N/A   Clear
6:14 PM 17.6 °F 10.7 °F 10.4 °F 73% 30.06 in 10.0 mi NNE 4.6 mph - N/A   Clear
6:34 PM 17.6 °F 6.4 °F 10.4 °F 73% 30.05 in 10.0 mi NNE 9.2 mph - N/A   Clear
6:54 PM 17.6 °F 5.7 °F 10.4 °F 73% 30.05 in 10.0 mi NNE 10.4 mph - N/A   Clear
7:14 PM 17.6 °F 6.4 °F 10.4 °F 73% 30.05 in 10.0 mi NNE 9.2 mph - N/A   Clear
7:34 PM 17.6 °F 9.3 °F 10.4 °F 73% 30.05 in 10.0 mi North 5.8 mph - N/A   Clear
7:54 PM 17.6 °F 8.2 °F 10.4 °F 73% 30.05 in 10.0 mi North 6.9 mph - N/A   Clear
8:14 PM 17.6 °F 8.2 °F 10.4 °F 73% 30.03 in 10.0 mi NE 6.9 mph - N/A   Clear
8:54 PM 17.6 °F 8.2 °F 10.4 °F 73% 30.02 in 10.0 mi NE 6.9 mph - N/A   Clear
9:14 PM 17.6 °F 4.3 °F 10.4 °F 73% 29.98 in 10.0 mi ENE 12.7 mph - N/A   Clear
9:34 PM 17.6 °F 5.0 °F 10.4 °F 73% 29.98 in 10.0 mi ENE 11.5 mph 17.3 mph N/A   Clear
9:54 PM 17.6 °F 5.0 °F 10.4 °F 73% 29.97 in 10.0 mi ENE 11.5 mph - N/A   Clear
10:14 PM 17.6 °F 10.7 °F 10.4 °F 73% 30.00 in 10.0 mi NE 4.6 mph - N/A   Clear
10:34 PM 17.6 °F 10.7 °F 10.4 °F 73% 30.00 in 10.0 mi NE 4.6 mph - N/A   Clear
10:54 PM 17.6 °F 10.7 °F 10.4 °F 73% 30.01 in 10.0 mi NE 4.6 mph - N/A   Scattered Clouds
11:13 PM 17.6 °F 12.3 °F 10.4 °F 73% 30.02 in 10.0 mi NNE 3.5 mph - N/A   Mostly Cloudy
11:33 PM 17.6 °F 12.3 °F 8.6 °F 68% 30.01 in 10.0 mi North 3.5 mph - N/A   Mostly Cloudy
11:54 PM 14.0 °F - 8.6 °F 79% 30.00 in 10.0 mi Calm Calm - N/A   Clear